This demonstration page uses our WeatherBlox Daily Observations layout. Learn more.

Left ArrowRight Arrow

39.92423, -83.80882

Hourly Observations for June 25, 2018

Temp ( °F °C ) Dew Point ( °F °C ) Humidity (%) Winds ( mph kmh ) Pressure ( in mb ) Visibility ( mi km ) Precip ( " mm )
12:56 am 00:56 Clear 66 18.9 64 17.8 93 93 NE 8 13 30.04 1017 10 16.0934 N/A
1:56 am 01:56 Clear 64 17.8 62 16.7 93 93 ENE 8 13 30.04 1017 10 16.0934 N/A
2:56 am 02:56 Clear 63 17.2 62 16.7 97 97 ENE 8 13 30.05 1018 10 16.0934 N/A
3:56 am 03:56 Clear 63 17.2 62 16.7 97 97 E 7 11 30.06 1018 8 12.87472 N/A
4:56 am 04:56 Clear 63 17.2 61 16.1 93 93 ENE 8 13 30.07 1018 8 12.87472 N/A
5:56 am 05:56 Clear 62 16.7 60 15.6 93 93 E 8 13 30.08 1019 10 16.0934 N/A
6:56 am 06:56 Sunny 62 16.7 60 15.6 93 93 E 8 13 30.1 1019 10 16.0934 N/A
7:56 am 07:56 Sunny 65 18.3 62 16.7 90 90 E 8 13 30.11 1020 10 16.0934 N/A
8:56 am 08:56 Sunny 68 20 63 17.2 84 84 E 10 17 30.14 1021 10 16.0934 N/A
9:56 am 09:56 Sunny 68 20 62 16.7 81 81 E 9 15 30.14 1021 10 16.0934 N/A
10:56 am 10:56 Sunny 70 21.1 62 16.7 76 76 E 12 19 30.13 1020 10 16.0934 N/A
11:56 am 11:56 Sunny 71 21.7 63 17.2 76 76 SE 7 11 30.15 1021 10 16.0934 N/A
12:56 pm 12:56 Sunny 72 22.2 63 17.2 73 73 ESE 12 19 30.14 1021 10 16.0934 N/A
1:56 pm 13:56 Sunny 73 22.8 62 16.7 69 69 SE 10 17 30.15 1021 10 16.0934 N/A
2:56 pm 14:56 Sunny 74 23.3 63 17.2 69 69 E 12 19 30.13 1020 10 16.0934 N/A
3:56 pm 15:56 Sunny 75 23.9 63 17.2 66 66 E 12 19 30.11 1020 10 16.0934 N/A
4:56 pm 16:56 Sunny 75 23.9 62 16.7 64 64 E 9 15 30.11 1020 10 16.0934 N/A
5:56 pm 17:56 Mostly Cloudy 75 23.9 61 16.1 62 62 E 9 15 30.11 1020 10 16.0934 N/A
6:56 pm 18:56 Cloudy 75 23.9 62 16.7 64 64 ESE 8 13 30.11 1020 10 16.0934 N/A
7:56 pm 19:56 Mostly Sunny 72 22.2 63 17.2 73 73 ESE 6 9 30.11 1020 10 16.0934 N/A
8:56 pm 20:56 Sunny 69 20.6 63 17.2 81 81 SE 3 6 30.11 1020 10 16.0934 N/A
9:56 pm 21:56 Clear 67 19.4 63 17.2 87 87 SE 5 7 30.12 1020 10 16.0934 N/A
10:56 pm 22:56 Clear 65 18.3 62 16.7 90 90 ESE 5 7 30.12 1020 10 16.0934 N/A
11:56 pm 23:56 Clear 64 17.8 62 16.7 93 93 E 5 7 30.11 1020 10 16.0934 N/A

Powered by AerisWeather